KK7N Weather Reports


time (UTC)temp
F
wind
direction
speed
knots
gust
knots
rain 1hr
in
rain 24hr
in
rain mn
in
humidity
%
barometer
mb
20260505074542 59 221 2.6 6.1 0.00 0.00 0.00 77 1014.0
20260505073049 59 271 0.9 2.6 0.00 0.00 0.00 76 1013.6
20260505071554 60 0 0.0 3.5 0.00 0.00 0.00 76 1013.4
20260505070050 61 198 1.7 7.8 0.00 0.00 0.00 74 1013.3
20260505064545 62 0 1.7 6.1 0.00 0.00 0.00 73 1013.1
20260505063058 63 216 4.3 7.8 0.00 0.00 0.00 72 1012.9
20260505061610 64 296 0.0 2.6 0.00 0.00 0.00 71 1012.7
20260505060039 65 0 0.0 2.6 0.00 0.00 0.00 70 1012.5
20260505054548 65 296 0.9 4.3 0.00 0.00 0.00 70 1012.4
20260505053046 65 279 4.3 10.4 0.00 0.00 0.00 70 1012.4
20260505051606 65 263 3.5 7.0 0.00 0.00 0.00 75 1012.2
20260505041551 66 0 0.0 0.9 0.00 0.00 0.00 75 1011.4
20260505040045 67 0 0.0 1.7 0.00 0.00 0.00 75 1011.1
20260505034547 67 0 0.0 0.9 0.00 0.00 0.00 72 1010.9
20260505033044 68 0 0.0 0.0 0.00 0.00 0.00 71 1010.8
20260505031552 69 0 0.0 2.6 0.00 0.00 0.00 70 1010.7
20260505030044 69 0 0.0 5.2 0.00 0.00 0.00 68 1010.4
20260505024548 70 0 1.7 8.7 0.00 0.00 0.00 66 1010.2
20260505023048 71 209 0.0 7.0 0.00 0.00 0.00 65 1010.3
20260505021551 72 0 2.6 7.0 0.00 0.00 0.00 62 1010.2
20260505020043 74 222 2.6 7.0 0.00 0.00 0.00 59 1010.2
20260505014543 75 215 4.3 7.8 0.00 0.00 0.00 57 1010.1
20260505013042 75 249 4.3 8.7 0.00 0.00 0.00 56 1010.4
20260505011551 76 242 2.6 7.8 0.00 0.00 0.00 56 1010.6
20260505010057 75 239 2.6 8.7 0.00 0.00 0.00 55 1010.6
20260505004544 74 227 1.7 6.1 0.00 0.00 0.00 57 1010.7
20260505003043 75 217 2.6 7.8 0.00 0.00 0.00 54 1010.8
20260505001544 76 262 3.5 7.8 0.00 0.00 0.00 55 1010.8
20260505000046 75 216 2.6 8.7 0.00 0.00 0.00 54 1010.9
20260504234548 75 276 3.5 7.8 0.00 0.00 0.00 55 1010.9
20260504233104 75 234 5.2 8.7 0.00 0.00 0.00 55 1011.0
20260504231546 74 205 1.7 7.8 0.00 0.00 0.00 57 1011.1
20260504230053 74 286 2.6 8.7 0.00 0.00 0.00 53 1011.2
20260504224542 73 280 3.5 7.8 0.00 0.00 0.00 57 1011.3
20260504223047 72 236 5.2 8.7 0.00 0.00 0.00 58 1011.5
20260504221544 71 119 1.7 7.0 0.00 0.00 0.00 62 1011.6
20260504220045 72 196 0.9 7.0 0.00 0.00 0.00 60 1011.8
20260504214548 71 0 0.9 6.1 0.00 0.00 0.00 61 1011.9
20260504213041 72 0 0.9 4.3 0.00 0.00 0.00 60 1012.1
20260504211540 72 279 3.5 8.7 0.00 0.00 0.00 59 1012.3
20260504210104 71 223 1.7 7.8 0.00 0.00 0.00 59 1012.5
20260504204548 69 0 4.3 8.7 0.00 0.00 0.00 63 1012.7
20260504203058 69 205 6.1 11.3 0.00 0.00 0.00 63 1012.8
20260504201541 68 0 0.9 7.8 0.00 0.00 0.00 64 1013.1
20260504200041 67 249 1.7 7.8 0.00 0.00 0.00 68 1013.3
20260504194545 66 228 3.5 9.6 0.00 0.00 0.00 67 1013.4
20260504193049 65 207 1.7 6.1 0.00 0.00 0.00 71 1013.4
20260504191543 64 247 2.6 7.0 0.00 0.00 0.00 70 1013.6
20260504190105 64 252 3.5 7.8 0.00 0.00 0.00 72 1013.7
20260504184548 63 213 1.7 8.7 0.00 0.00 0.00 73 1013.9
20260504183045 62 283 4.3 9.6 0.00 0.00 0.00 73 1013.8
20260504181544 62 220 4.3 7.8 0.00 0.00 0.00 74 1013.8
20260504180044 61 285 2.6 7.8 0.00 0.00 0.00 75 1013.8
20260504174544 60 275 1.7 4.3 0.00 0.00 0.00 76 1013.8
20260504173044 60 200 4.3 7.8 0.00 0.00 0.00 76 1013.8
20260504171543 59 229 2.6 6.1 0.00 0.00 0.00 79 1013.8
20260504110120 60 0 0.9 5.2 0.00 0.00 0.00 76 1009.9
20260504081540 61 97 0.0 2.6 0.00 0.00 0.00 79 1008.6